SCP
0 0 0 0 0 0 0 0 0 0 0 0 0 0 0 0 0 0 0 0 0 0 0 0 0 0 0 0 0 0 0 0 0 0 0 0 0 0 0 0 0 0 -0 0
0 0 0 0 0 0 0 0 0 0 0 0 0 0 0 0 0 0 0 0 0 0 0 0 0 0 0 0 0 0 0 0 0 0 0 0 0 0 -0 0 0 -0 0 0
0 0 0 0 0 0 0 0 0 0 0 0 0 0 0 0 0 0 0 0 0 0 0 0 0 0 0 0 0 0 0 0 0 0 0 0 0 0 0 0 0 0 -0 0
0 0 0 0 0 0 0 0 0 0 0 0 0 0 0 0 0 0 0 0 0 0 0 0 0 0 0 0 0 0 0 0 -0 0 0 0 0 0 0 0 0 0 -0 -0
0 0 0 0 0 0 0 0 0 0 0 0 0 0 0 0 0 0 0 0 0 0 0 0 0 0 0 0 0 0 0 0 0 0 0 -0 -0 0 0 -0 -0 -0 -0 0
0 0 0 0 0 0 0 0 0 0 0 0 0 0 0 0 0 0 0 0 0 0 0 0 0 0 0 0 0 0 0 0 0 0 0 0 0 0 -0 -0 0 -0 -0 -0
0 0 0 0 0 0 0 0 0 0 0 0 0 0 0 0 0 0 0 0 0 0 0 0 0 0 0 0 0 0 0 0 0 0 0 -0 -0 0 -0 0 0 0 -0 -0
0 0 0 0 0 0 0 0 0 0 0 0 0 0 0 0 0 0 0 0 0 0 0 0 0 0 0 -0 -0 0 0 0 0 0 0 -0 -0 0 0 0 0 0 -0 -0
0 0 0 0 0 0 0 0 0 0 0 0 0 0 0 0 0 0 0 0 0 0 0 0 0 0 0 0 0 0 0 0 -0 0 0 0 0 -0 0 -0 -0 -0 0 0
0 0 0 0 0 0 0 0 0 0 0 0 0 0 0 0 0 0 0 0 0 0 0 0 -0 -0 0 0 0 0 0 0 0 -0 0 0 0 0 0 -0 0 0 -0 -0
0 0 0 0 0 0 0 0 0 0 0 0 0 0 0 0 0 0 0 0 0 0 0 -0 0 0 0 0 0 0 0 0 0 -0 0 0 0 0 0 0 0 0 -0 -0
0 0 0 0 0 0 0 0 0 0 0 0 0 0 0 0 0 0 0 0 0 0 0 0 0 0 0 0 0 0 0 0 0 0 0 0 0 0 0 0 -0 0 -0 -0
0 0 0 0 0 0 0 0 0 0 0 0 0 0 0 0 0 0 0 0 0 0 0 0 0 0 0 0 0 0 0 0 0 0 0 0 0 0 0 0 0 0 -0 -0
0 0 0 0 0 0 0 0 0 0 0 0 0 0 0 0 0 0 0 0 0 0 0 0 0 0 0 0 0 0 0 0 0 0 0 0 0 0 0 0 0 0 0 -0
0 0 0 0 0 0 0 0 0 0 0 0 0 0 0 0 0 0 0 0 0 0 0 0 0 0 0 0 0 0 0 0 0 0 0 0 0 0 0 0 0 0 0 -0
0 0 0 0 0 0 0 0 0 0 0 0 0 0 0 0 0 0 0 0 0 0 0 0 0 0 0 0 0 0 0 0 0 0 0 0 0 0 0 0 0 0 0 -0
0 0 0 0 0 0 0 0 0 0 0 0 0 0 0 0 0 0 0 0 0 0 0 0 0 0 0 0 0 0 0 0 0 0 0 0 0 0 0 0 0 0 0 0
0 0 0 0 0 0 0 0 0 0 0 0 0 0 0 0 0 0 0 0 0 0 0 0 0 0 0 0 0 0 0 0 0 0 0 0 0 0 0 0 0 0 0 0
0 0 0 0 0 0 0 0 0 0 0 0 0 0 0 0 0 0 0 0 0 0 0 0 -0 0 0 0 0 0 0 0 0 0 0 0 0 0 0 0 0 0 0 -0
0 0 0 0 0 0 0 0 0 0 0 0 0 0 0 0 0 0 0 0 0 0 0 0 0 0 0 0 0 0 -0 0 0 0 0 0 0 0 0 0 0 0 0 -0
0 0 0 0 0 0 0 0 0 0 0 0 0 0 0 0 0 0 0 0 0 0 0 0 -0 -0 0 0 0 0 0 0 0 0 0 0 0 0 0 0 0 0 0 0
0 0 0 0 0 0 0 0 0 0 0 0 0 0 0 0 0 0 0 0 0 0 -0 -0 -0 0 0 0 -0 0 0 0 0 0 0 0 0 0 0 0 0 0 0 0
0 0 0 0 0 0 0 0 0 0 0 0 0 0 0 0 0 0 0 0 0 -0 -0 -0 0 0 0 -0 0 0 0 0 0 0 0 0 0 0 0 0 0 0 0 0
0 0 0 0 0 0 0 0 0 0 0 0 0 0 0 0 0 0 0 0 -0 0 0 0 0 0 -0 0 0 0 0 0 0 0 0 0 0 0 0 0 0 0 0 0
0 0 0 0 0 0 0 0 0 0 0 0 0 0 0 0 0 0 0 0 0 -0 -0 -0 0 0 -0 -0 0 0 0 0 0 0 0 0 0 0 0 0 0 0 0 0
0 0 0 0 0 0 0 0 0 0 0 0 0 0 0 0 0 0 0 0 0 0 -0 0 0 0 -0 -0 -0 -0 -0 0 0 0 0 0 0 0 0 0 0 0 0 0
0 0 0 0 0 0 0 0 0 0 0 0 0 0 0 0 0 0 0 0 0 0 0 0 0 0 0 -0 -0 -0 -0 -0 0 0 0 0 0 0 0 0 0 0 0 0
Wind_Speed_500mb
76 68 63 62 51 60 88 52 8 80 93 18 10 23 21 23 26 28 16 17 23 20 20 22 24 19 12 17 12 11 17 10 22 32 21 17 28 32 31 21 27 15 26 15
78 76 68 71 63 88 86 36 18 79 63 13 27 25 35 23 28 33 23 20 19 14 20 16 20 8 9 12 19 11 11 13 14 16 14 20 19 29 29 18 19 29 17 3
86 82 77 80 76 107 84 26 10 19 33 25 28 39 33 35 39 28 26 20 17 20 17 18 9 17 12 19 26 7 4 15 19 23 20 9 9 14 18 24 21 27 23 4
93 89 88 92 87 121 89 23 14 35 23 26 27 34 30 42 25 31 33 21 32 27 21 25 21 17 16 15 20 13 15 19 20 31 32 31 27 23 24 22 29 19 15 5
100 94 98 101 99 125 69 32 17 48 27 55 37 39 33 47 39 34 40 24 28 24 28 23 13 25 21 16 25 27 24 14 13 21 32 30 29 29 26 18 15 10 5 9
103 106 103 108 105 143 56 62 49 54 38 43 34 39 39 46 34 29 36 29 23 27 25 14 8 16 28 12 18 27 20 10 12 13 6 8 14 17 16 6 5 10 17 15
108 110 110 110 117 148 71 64 50 25 15 35 43 46 44 41 37 16 20 30 27 8 16 13 8 13 20 20 20 21 11 15 12 10 9 16 9 9 9 10 7 13 22 19
118 114 119 116 123 162 86 69 69 20 13 40 46 42 40 40 31 18 25 24 17 26 25 12 12 9 7 23 31 27 17 10 8 8 17 13 15 14 15 15 12 12 22 23
107 112 118 121 118 162 97 76 56 40 21 34 60 46 54 28 29 22 26 19 24 25 12 8 13 15 15 14 13 32 24 24 17 11 15 5 17 21 12 12 11 23 22 25
104 94 110 101 138 141 90 80 45 35 17 27 59 42 46 52 37 21 36 29 19 23 13 12 16 15 9 13 19 17 9 8 27 25 15 8 12 14 12 10 9 23 22 23
93 106 105 131 137 103 90 72 45 40 20 43 52 51 61 51 37 20 37 19 16 18 15 12 10 6 3 6 5 10 16 10 14 19 13 10 5 14 8 13 23 27 28 28
127 136 139 134 115 94 84 61 51 55 40 45 41 41 32 24 27 29 51 7 43 18 16 8 4 4 4 7 7 9 9 5 8 11 7 10 7 18 24 24 32 31 36 34
126 123 118 104 95 86 65 69 70 55 73 49 37 29 21 26 29 26 23 13 22 12 3 6 4 4 8 8 6 8 6 4 3 11 13 13 15 17 24 30 35 36 36 37
121 109 97 84 78 72 79 75 43 64 36 15 15 20 20 17 18 17 9 21 16 18 13 6 3 5 4 5 4 3 3 14 11 8 15 18 16 24 30 35 36 37 33 32
91 84 75 72 87 83 84 67 51 46 22 23 37 35 24 23 23 23 21 24 26 24 13 4 5 3 5 5 8 8 15 6 7 3 36 10 37 32 36 38 36 34 37 34
77 77 78 77 79 78 71 45 44 42 89 44 10 22 21 22 22 23 21 18 12 7 5 5 7 7 5 6 4 5 10 6 4 8 34 21 40 39 35 37 36 34 33 33
77 79 80 80 67 48 24 20 38 46 34 24 13 13 15 20 18 17 15 11 8 4 6 8 6 6 8 4 4 17 14 13 21 34 43 39 43 38 38 37 35 34 32 31
73 67 61 50 49 54 58 57 46 36 26 16 8 10 19 18 18 12 7 10 10 2 4 7 8 9 8 5 13 19 21 26 30 37 3 37 38 45 40 37 39 38 34 31
64 57 52 51 38 26 32 39 32 24 17 9 8 16 9 16 14 13 10 5 3 4 4 2 4 5 5 5 29 29 34 27 34 19 33 42 48 46 43 40 38 36 35 32
66 48 22 15 14 47 36 16 8 11 12 13 10 21 12 25 21 6 9 5 6 7 4 5 6 2 8 10 22 30 34 22 34 37 40 45 44 46 45 41 36 34 35 34
17 15 15 27 31 11 9 8 7 7 7 11 6 27 20 16 8 11 2 4 3 6 6 5 7 6 10 18 25 30 24 30 29 21 29 36 39 42 42 39 35 35 36 33
21 38 29 14 8 8 9 6 4 1 8 14 19 23 29 13 7 5 6 5 3 2 6 5 5 6 19 28 32 30 27 27 23 22 33 34 36 37 37 36 36 37 38 39
24 13 10 4 8 7 3 8 5 9 12 17 28 13 12 9 6 6 3 5 3 10 3 4 6 17 24 29 34 28 23 24 23 30 31 33 35 35 37 42 44 44 38 36
12 9 10 8 6 7 6 11 12 9 27 33 27 14 8 6 6 2 5 3 4 5 5 5 9 16 26 33 32 32 31 32 35 36 37 42 45 45 43 40 39 41 39 37
11 10 9 9 10 17 16 21 20 27 29 26 21 11 10 5 5 2 6 4 7 6 1 5 8 18 31 37 39 43 40 39 36 38 41 42 42 42 41 40 41 39 36 33
10 15 8 12 20 19 27 26 25 23 20 16 10 6 6 4 4 3 4 4 2 5 5 5 9 21 31 38 38 40 41 38 33 32 34 37 39 41 43 44 40 37 32 29
9 9 19 24 26 17 13 19 18 9 8 4 3 5 4 5 3 4 1 3 4 6 6 5 8 23 31 35 37 37 41 39 35 35 36 37 39 40 42 44 41 36 31 28
Wind_Direction_500mb
238 235 223 215 210 206 196 164 131 164 164 145 210 222 213 227 197 208 212 261 236 226 211 207 237 233 233 166 183 215 219 277 261 263 267 255 268 270 210 229 251 300 280 284
234 229 220 212 209 206 178 140 121 164 176 175 203 220 216 220 205 196 207 212 212 226 209 227 221 206 79 184 205 231 163 232 263 233 211 229 248 237 258 244 275 273 289 312
230 226 218 210 209 202 180 138 127 172 214 243 231 205 202 201 213 207 210 202 187 200 197 211 229 219 165 198 221 74 272 252 264 271 317 314 242 197 241 251 256 273 271 101
226 222 215 208 207 195 185 164 168 181 192 214 225 196 198 200 192 212 188 188 207 203 212 228 223 219 163 203 211 208 228 260 258 274 279 276 273 264 248 252 260 268 324 9
223 221 213 206 203 195 188 170 168 173 204 192 210 194 204 197 186 193 194 209 199 205 232 235 222 220 185 201 198 215 195 246 324 285 267 254 255 252 247 250 232 273 228 145
225 215 209 204 201 191 197 203 190 175 155 179 191 198 201 200 168 194 191 201 212 218 227 236 245 214 208 220 187 201 213 231 235 257 323 279 251 188 209 158 173 275 229 114
220 209 205 202 200 200 194 191 172 188 170 177 193 197 198 194 168 150 187 217 214 160 140 139 177 218 222 221 208 200 200 204 257 279 202 236 95 89 165 141 104 131 115 132
208 204 202 200 200 199 189 187 179 171 166 191 189 190 184 164 163 174 204 191 160 150 156 188 183 202 226 233 221 217 192 231 271 257 232 122 167 176 168 192 161 159 140 140
194 196 196 197 197 194 192 179 186 183 158 199 181 178 174 160 175 154 164 142 148 162 196 185 230 208 217 159 179 207 216 221 252 287 254 257 112 140 158 171 191 183 169 162
192 191 189 191 187 187 184 177 177 149 120 169 168 173 168 181 171 169 162 155 170 193 189 215 234 228 197 184 181 168 194 194 222 238 258 111 103 135 159 232 111 159 174 162
187 187 185 179 178 175 169 164 151 174 117 153 166 179 180 178 177 162 158 159 192 185 205 224 215 229 157 249 100 161 207 216 196 228 246 203 144 154 231 118 131 146 125 111
159 160 163 166 165 160 161 143 137 131 117 122 137 129 157 175 181 172 167 199 170 182 215 230 104 148 188 192 214 156 216 320 355 3 42 94 72 92 118 134 134 135 130 128
139 145 147 151 153 143 133 147 144 133 116 115 109 99 117 146 141 142 175 187 166 194 226 118 206 172 189 208 222 117 165 239 235 192 131 129 128 125 130 132 125 128 130 131
123 122 122 126 143 147 146 137 145 134 122 109 108 110 103 98 136 156 135 142 160 161 177 92 196 188 220 232 345 240 88 169 155 93 135 140 143 142 136 132 129 129 129 134
117 122 131 141 146 148 142 125 127 135 130 126 119 104 90 99 106 115 128 136 145 155 157 158 172 145 172 201 272 147 185 145 205 43 167 221 161 156 149 141 140 139 135 134
125 129 136 142 141 142 125 96 86 114 118 118 103 101 108 112 112 115 122 134 142 190 102 104 163 163 214 204 272 121 111 125 123 150 153 137 149 149 152 148 147 142 142 141
125 129 135 136 130 135 127 120 135 117 108 104 117 120 132 134 124 119 116 126 139 234 134 120 178 165 188 243 253 143 146 140 132 138 127 132 151 154 155 151 147 141 139 139
124 123 125 119 115 101 102 121 121 103 105 90 101 106 141 174 155 130 154 140 167 150 88 163 174 142 222 235 127 150 148 145 148 154 187 158 152 150 152 154 151 147 145 144
123 125 124 116 85 88 99 116 102 88 78 103 119 153 134 174 140 110 157 203 149 125 188 168 238 177 214 108 166 168 162 163 166 156 145 149 154 155 156 159 158 154 154 154
119 113 86 71 96 112 104 67 71 52 51 54 111 107 131 160 165 134 131 204 175 189 154 133 243 123 115 145 171 171 168 167 166 158 159 160 162 163 163 167 165 164 158 156
75 55 69 111 113 77 63 67 63 115 107 99 82 134 143 149 183 133 123 139 195 227 127 223 197 188 145 162 159 161 166 161 161 169 174 171 168 166 165 165 162 160 158 160
96 117 101 75 63 67 81 66 88 143 104 132 144 135 129 119 118 113 182 140 213 228 169 196 237 94 144 160 159 157 158 164 164 163 166 168 167 168 166 164 161 160 164 177
90 71 71 24 24 75 95 136 117 122 121 148 142 127 124 129 104 86 107 166 132 146 208 226 70 126 152 161 164 162 158 159 154 154 160 161 161 163 165 167 176 176 173 171
61 56 57 20 64 64 31 45 79 90 132 136 131 104 86 116 73 168 138 73 225 208 230 154 96 147 151 157 159 160 156 157 152 158 160 164 171 175 181 182 176 175 175 174
59 43 58 62 75 71 92 102 100 111 114 118 113 89 87 76 109 149 134 154 198 228 34 72 90 158 168 167 164 166 170 167 166 171 176 179 180 178 173 172 173 177 178 177
57 41 92 87 98 97 94 92 98 109 112 110 97 114 86 80 125 159 197 201 209 81 51 91 134 169 172 175 177 181 178 172 169 172 174 174 175 175 173 172 175 176 179 180
52 51 36 58 78 79 78 83 87 76 90 71 118 85 75 150 104 146 281 26 53 82 80 79 148 164 171 175 178 184 183 180 181 178 177 177 179 179 178 177 176 177 178 180
Wind_Speed_850mb
76 68 63 62 51 60 88 52 8 80 93 18 10 23 21 23 26 28 16 17 23 20 20 22 24 19 12 17 12 11 17 10 22 32 21 17 28 32 31 21 27 15 26 15
78 76 68 71 63 88 86 36 18 79 63 13 27 25 35 23 28 33 23 20 19 14 20 16 20 8 9 12 19 11 11 13 14 16 14 20 19 29 29 18 19 29 17 3
86 82 77 80 76 107 84 26 10 19 33 25 28 39 33 35 39 28 26 20 17 20 17 18 9 17 12 19 26 7 4 15 19 23 20 9 9 14 18 24 21 27 23 4
93 89 88 92 87 121 89 23 14 35 23 26 27 34 30 42 25 31 33 21 32 27 21 25 21 17 16 15 20 13 15 19 20 31 32 31 27 23 24 22 29 19 15 5
100 94 98 101 99 125 69 32 17 48 27 55 37 39 33 47 39 34 40 24 28 24 28 23 13 25 21 16 25 27 24 14 13 21 32 30 29 29 26 18 15 10 5 9
103 106 103 108 105 143 56 62 49 54 38 43 34 39 39 46 34 29 36 29 23 27 25 14 8 16 28 12 18 27 20 10 12 13 6 8 14 17 16 6 5 10 17 15
108 110 110 110 117 148 71 64 50 25 15 35 43 46 44 41 37 16 20 30 27 8 16 13 8 13 20 20 20 21 11 15 12 10 9 16 9 9 9 10 7 13 22 19
118 114 119 116 123 162 86 69 69 20 13 40 46 42 40 40 31 18 25 24 17 26 25 12 12 9 7 23 31 27 17 10 8 8 17 13 15 14 15 15 12 12 22 23
107 112 118 121 118 162 97 76 56 40 21 34 60 46 54 28 29 22 26 19 24 25 12 8 13 15 15 14 13 32 24 24 17 11 15 5 17 21 12 12 11 23 22 25
104 94 110 101 138 141 90 80 45 35 17 27 59 42 46 52 37 21 36 29 19 23 13 12 16 15 9 13 19 17 9 8 27 25 15 8 12 14 12 10 9 23 22 23
93 106 105 131 137 103 90 72 45 40 20 43 52 51 61 51 37 20 37 19 16 18 15 12 10 6 3 6 5 10 16 10 14 19 13 10 5 14 8 13 23 27 28 28
127 136 139 134 115 94 84 61 51 55 40 45 41 41 32 24 27 29 51 7 43 18 16 8 4 4 4 7 7 9 9 5 8 11 7 10 7 18 24 24 32 31 36 34
126 123 118 104 95 86 65 69 70 55 73 49 37 29 21 26 29 26 23 13 22 12 3 6 4 4 8 8 6 8 6 4 3 11 13 13 15 17 24 30 35 36 36 37
121 109 97 84 78 72 79 75 43 64 36 15 15 20 20 17 18 17 9 21 16 18 13 6 3 5 4 5 4 3 3 14 11 8 15 18 16 24 30 35 36 37 33 32
91 84 75 72 87 83 84 67 51 46 22 23 37 35 24 23 23 23 21 24 26 24 13 4 5 3 5 5 8 8 15 6 7 3 36 10 37 32 36 38 36 34 37 34
77 77 78 77 79 78 71 45 44 42 89 44 10 22 21 22 22 23 21 18 12 7 5 5 7 7 5 6 4 5 10 6 4 8 34 21 40 39 35 37 36 34 33 33
77 79 80 80 67 48 24 20 38 46 34 24 13 13 15 20 18 17 15 11 8 4 6 8 6 6 8 4 4 17 14 13 21 34 43 39 43 38 38 37 35 34 32 31
73 67 61 50 49 54 58 57 46 36 26 16 8 10 19 18 18 12 7 10 10 2 4 7 8 9 8 5 13 19 21 26 30 37 3 37 38 45 40 37 39 38 34 31
64 57 52 51 38 26 32 39 32 24 17 9 8 16 9 16 14 13 10 5 3 4 4 2 4 5 5 5 29 29 34 27 34 19 33 42 48 46 43 40 38 36 35 32
66 48 22 15 14 47 36 16 8 11 12 13 10 21 12 25 21 6 9 5 6 7 4 5 6 2 8 10 22 30 34 22 34 37 40 45 44 46 45 41 36 34 35 34
17 15 15 27 31 11 9 8 7 7 7 11 6 27 20 16 8 11 2 4 3 6 6 5 7 6 10 18 25 30 24 30 29 21 29 36 39 42 42 39 35 35 36 33
21 38 29 14 8 8 9 6 4 1 8 14 19 23 29 13 7 5 6 5 3 2 6 5 5 6 19 28 32 30 27 27 23 22 33 34 36 37 37 36 36 37 38 39
24 13 10 4 8 7 3 8 5 9 12 17 28 13 12 9 6 6 3 5 3 10 3 4 6 17 24 29 34 28 23 24 23 30 31 33 35 35 37 42 44 44 38 36
12 9 10 8 6 7 6 11 12 9 27 33 27 14 8 6 6 2 5 3 4 5 5 5 9 16 26 33 32 32 31 32 35 36 37 42 45 45 43 40 39 41 39 37
11 10 9 9 10 17 16 21 20 27 29 26 21 11 10 5 5 2 6 4 7 6 1 5 8 18 31 37 39 43 40 39 36 38 41 42 42 42 41 40 41 39 36 33
10 15 8 12 20 19 27 26 25 23 20 16 10 6 6 4 4 3 4 4 2 5 5 5 9 21 31 38 38 40 41 38 33 32 34 37 39 41 43 44 40 37 32 29
9 9 19 24 26 17 13 19 18 9 8 4 3 5 4 5 3 4 1 3 4 6 6 5 8 23 31 35 37 37 41 39 35 35 36 37 39 40 42 44 41 36 31 28
Wind_Direction_850mb
238 235 223 215 210 206 196 164 131 164 164 145 210 222 213 227 197 208 212 261 236 226 211 207 237 233 233 166 183 215 219 277 261 263 267 255 268 270 210 229 251 300 280 284
234 229 220 212 209 206 178 140 121 164 176 175 203 220 216 220 205 196 207 212 212 226 209 227 221 206 79 184 205 231 163 232 263 233 211 229 248 237 258 244 275 273 289 312
230 226 218 210 209 202 180 138 127 172 214 243 231 205 202 201 213 207 210 202 187 200 197 211 229 219 165 198 221 74 272 252 264 271 317 314 242 197 241 251 256 273 271 101
226 222 215 208 207 195 185 164 168 181 192 214 225 196 198 200 192 212 188 188 207 203 212 228 223 219 163 203 211 208 228 260 258 274 279 276 273 264 248 252 260 268 324 9
223 221 213 206 203 195 188 170 168 173 204 192 210 194 204 197 186 193 194 209 199 205 232 235 222 220 185 201 198 215 195 246 324 285 267 254 255 252 247 250 232 273 228 145
225 215 209 204 201 191 197 203 190 175 155 179 191 198 201 200 168 194 191 201 212 218 227 236 245 214 208 220 187 201 213 231 235 257 323 279 251 188 209 158 173 275 229 114
220 209 205 202 200 200 194 191 172 188 170 177 193 197 198 194 168 150 187 217 214 160 140 139 177 218 222 221 208 200 200 204 257 279 202 236 95 89 165 141 104 131 115 132
208 204 202 200 200 199 189 187 179 171 166 191 189 190 184 164 163 174 204 191 160 150 156 188 183 202 226 233 221 217 192 231 271 257 232 122 167 176 168 192 161 159 140 140
194 196 196 197 197 194 192 179 186 183 158 199 181 178 174 160 175 154 164 142 148 162 196 185 230 208 217 159 179 207 216 221 252 287 254 257 112 140 158 171 191 183 169 162
192 191 189 191 187 187 184 177 177 149 120 169 168 173 168 181 171 169 162 155 170 193 189 215 234 228 197 184 181 168 194 194 222 238 258 111 103 135 159 232 111 159 174 162
187 187 185 179 178 175 169 164 151 174 117 153 166 179 180 178 177 162 158 159 192 185 205 224 215 229 157 249 100 161 207 216 196 228 246 203 144 154 231 118 131 146 125 111
159 160 163 166 165 160 161 143 137 131 117 122 137 129 157 175 181 172 167 199 170 182 215 230 104 148 188 192 214 156 216 320 355 3 42 94 72 92 118 134 134 135 130 128
139 145 147 151 153 143 133 147 144 133 116 115 109 99 117 146 141 142 175 187 166 194 226 118 206 172 189 208 222 117 165 239 235 192 131 129 128 125 130 132 125 128 130 131
123 122 122 126 143 147 146 137 145 134 122 109 108 110 103 98 136 156 135 142 160 161 177 92 196 188 220 232 345 240 88 169 155 93 135 140 143 142 136 132 129 129 129 134
117 122 131 141 146 148 142 125 127 135 130 126 119 104 90 99 106 115 128 136 145 155 157 158 172 145 172 201 272 147 185 145 205 43 167 221 161 156 149 141 140 139 135 134
125 129 136 142 141 142 125 96 86 114 118 118 103 101 108 112 112 115 122 134 142 190 102 104 163 163 214 204 272 121 111 125 123 150 153 137 149 149 152 148 147 142 142 141
125 129 135 136 130 135 127 120 135 117 108 104 117 120 132 134 124 119 116 126 139 234 134 120 178 165 188 243 253 143 146 140 132 138 127 132 151 154 155 151 147 141 139 139
124 123 125 119 115 101 102 121 121 103 105 90 101 106 141 174 155 130 154 140 167 150 88 163 174 142 222 235 127 150 148 145 148 154 187 158 152 150 152 154 151 147 145 144
123 125 124 116 85 88 99 116 102 88 78 103 119 153 134 174 140 110 157 203 149 125 188 168 238 177 214 108 166 168 162 163 166 156 145 149 154 155 156 159 158 154 154 154
119 113 86 71 96 112 104 67 71 52 51 54 111 107 131 160 165 134 131 204 175 189 154 133 243 123 115 145 171 171 168 167 166 158 159 160 162 163 163 167 165 164 158 156
75 55 69 111 113 77 63 67 63 115 107 99 82 134 143 149 183 133 123 139 195 227 127 223 197 188 145 162 159 161 166 161 161 169 174 171 168 166 165 165 162 160 158 160
96 117 101 75 63 67 81 66 88 143 104 132 144 135 129 119 118 113 182 140 213 228 169 196 237 94 144 160 159 157 158 164 164 163 166 168 167 168 166 164 161 160 164 177
90 71 71 24 24 75 95 136 117 122 121 148 142 127 124 129 104 86 107 166 132 146 208 226 70 126 152 161 164 162 158 159 154 154 160 161 161 163 165 167 176 176 173 171
61 56 57 20 64 64 31 45 79 90 132 136 131 104 86 116 73 168 138 73 225 208 230 154 96 147 151 157 159 160 156 157 152 158 160 164 171 175 181 182 176 175 175 174
59 43 58 62 75 71 92 102 100 111 114 118 113 89 87 76 109 149 134 154 198 228 34 72 90 158 168 167 164 166 170 167 166 171 176 179 180 178 173 172 173 177 178 177
57 41 92 87 98 97 94 92 98 109 112 110 97 114 86 80 125 159 197 201 209 81 51 91 134 169 172 175 177 181 178 172 169 172 174 174 175 175 173 172 175 176 179 180
52 51 36 58 78 79 78 83 87 76 90 71 118 85 75 150 104 146 281 26 53 82 80 79 148 164 171 175 178 184 183 180 181 178 177 177 179 179 178 177 176 177 178 180